Content
SEND FEEDBACK

Daily
Averages
Monthly
Summary
United States of America

PATCHOGUE, NEW YORK


Home > North America > United States > New York
Elevation: 2 feet     Latitude: 40 45N     Longitude: 073 00W

WEATHER
 
SELECT A DAY
Number of Records: 161,749;   Date Range: 9/29/99 - 12/19/14
 
SHARE

PRINT THIS DATA

[ ← Previous Day ]
WEATHER ALMANAC - JANUARY 24, 2013
[ Next Day → ]
[ °C ]   °F
Weather ElementAverageHighLow
Temperature15.3 °F21.9 °F (2:56 pm)3.9 °F (2:56 am)
Dewpoint-0.9 °F5 °F (8:56 am)-6 °F (2:56 am)
Humidity50.2 %70 % (6:56 am)36 % (4:56 pm)
Barometer30.23 in30.36 in (10:56 pm)30.14 in (3:56 am)
Wind Speed10.9 mph20.7 mph (1:56 pm)
Wind Gust29.9 mph (12:56 pm)
Weather ElementAverage
Visibility10 mi
Wind DirectionWSW (260 °)

Weather ElementTotal
Precipitation---
Heating Degree Days52.1 (Base 65)
Averaged from 22 records on January 24, 2013
WEATHER CONDITIONS BREAKOUT
WIND DIRECTION BREAKOUT
WEATHER BY HOUR - JANUARY 24, 2013
[ °C ]   °F
Local TimeTemperatureDewpointHumidityBarometerVisibilityWind DirectionWind SpeedGust SpeedPrecipitationEventsConditions
1:56 AM7.0 °F-4.0 °F61 %30.17 in10.0 miCalmClear
2:56 AM3.9 °F-6.0 °F64 %30.15 in10.0 miCalmClear
3:56 AM3.9 °F-6.0 °F64 %30.14 in10.0 miCalmClear
4:56 AM3.9 °F-6.0 °F64 %30.14 in10.0 miCalmClear
5:56 AM6.1 °F-2.0 °F69 %30.16 in10.0 miNNW (340°)4.6 mphClear
6:56 AM9.0 °F1.0 °F70 %30.18 in10.0 miNNW (340°)5.8 mphScattered Clouds
7:56 AM12.0 °F3.9 °F70 %30.19 in10.0 miNNW (330°)5.8 mphClear
8:56 AM17.1 °F5.0 °F59 %30.19 in10.0 miNorth (350°)13.8 mph21.9 mph0.00 inClear
10:56 AM18.0 °F1.9 °F50 %30.21 in10.0 miNNW (330°)17.3 mph26.5 mphClear
11:56 AM19.0 °F1.0 °F46 %30.19 in10.0 miNW (320°)19.6 mph28.8 mphClear
12:56 PM21.0 °F1.0 °F42 %30.20 in10.0 miNNW (330°)16.1 mph29.9 mphScattered Clouds
1:56 PM21.0 °F0.0 °F40 %30.20 in10.0 miNW (320°)20.7 mph28.8 mphPartly Cloudy
2:56 PM21.9 °F0.0 °F38 %30.22 in10.0 miNW (320°)15.0 mph28.8 mphClear
3:56 PM21.9 °F-0.9 °F37 %30.23 in10.0 miNW (320°)15.0 mph26.5 mphClear
4:56 PM21.0 °F-2.0 °F36 %30.25 in10.0 miNW (320°)16.1 mph25.3 mphClear
5:56 PM21.0 °F-2.0 °F36 %30.29 in10.0 miWNW (300°)17.3 mph24.2 mphClear
6:56 PM19.9 °F-2.0 °F38 %30.31 in10.0 miNW (310°)13.8 mph25.3 mphClear
7:56 PM19.9 °F-2.0 °F38 %30.32 in10.0 miWNW (300°)15.0 mph25.3 mphClear
8:56 PM19.0 °F0.0 °F43 %30.33 in10.0 miWNW (300°)13.8 mph21.9 mphClear
9:56 PM18.0 °F-0.9 °F44 %30.34 in10.0 miWNW (300°)9.2 mphClear
10:56 PM17.1 °F0.0 °F47 %30.36 in10.0 miWNW (300°)10.4 mphClear
11:56 PM16.0 °F0.0 °F49 %30.35 in10.0 miWNW (290°)11.5 mphClear
Hourly data recorded from KHWV, located miles away from Patchogue, New York







STORIES FROM OUR PARTNERS